Year,Month,Day,Hour,Minute,Value (Times are PST for temperature in C)
2017,07,19,00,00,15.30
2017,07,19,00,01,15.30
2017,07,19,00,02,15.30
2017,07,19,00,03,15.20
2017,07,19,00,04,15.20
2017,07,19,00,05,15.20
2017,07,19,00,06,15.20
2017,07,19,00,07,15.20
2017,07,19,00,08,15.20
2017,07,19,00,09,15.20
2017,07,19,00,10,15.10
2017,07,19,00,11,15.10
2017,07,19,00,12,15.10
2017,07,19,00,13,15.10
2017,07,19,00,14,15.10
2017,07,19,00,15,15.00
2017,07,19,00,16,15.00
2017,07,19,00,17,15.00
2017,07,19,00,18,15.00
2017,07,19,00,19,14.90
2017,07,19,00,20,14.90
2017,07,19,00,21,14.90
2017,07,19,00,22,14.90
2017,07,19,00,23,14.90
2017,07,19,00,24,14.80
2017,07,19,00,25,14.80
2017,07,19,00,26,14.80
2017,07,19,00,27,14.80
2017,07,19,00,28,14.80
2017,07,19,00,29,14.80
2017,07,19,00,30,14.80
2017,07,19,00,31,14.70
2017,07,19,00,32,14.70
2017,07,19,00,33,14.70
2017,07,19,00,34,14.70
2017,07,19,00,35,14.70
2017,07,19,00,36,14.70
2017,07,19,00,37,14.70
2017,07,19,00,38,14.70
2017,07,19,00,39,14.80
2017,07,19,00,40,14.80
2017,07,19,00,41,14.80
2017,07,19,00,42,14.70
2017,07,19,00,43,14.70
2017,07,19,00,44,14.70
2017,07,19,00,45,14.60
2017,07,19,00,46,14.60
2017,07,19,00,47,14.60
2017,07,19,00,48,14.60
2017,07,19,00,49,14.60
2017,07,19,00,50,14.60
2017,07,19,00,51,14.60
2017,07,19,00,52,14.60
2017,07,19,00,53,14.60
2017,07,19,00,54,14.60
2017,07,19,00,55,14.60
2017,07,19,00,56,14.60
2017,07,19,00,57,14.60
2017,07,19,00,58,14.50
2017,07,19,00,59,14.50
2017,07,19,01,00,14.50
2017,07,19,01,01,14.50
2017,07,19,01,02,14.50
2017,07,19,01,03,14.40
2017,07,19,01,04,14.40
2017,07,19,01,05,14.40
2017,07,19,01,06,14.40
2017,07,19,01,07,14.40
2017,07,19,01,08,14.40
2017,07,19,01,09,14.40
2017,07,19,01,10,14.40
2017,07,19,01,11,14.40
2017,07,19,01,12,14.40
2017,07,19,01,13,14.30
2017,07,19,01,14,14.30
2017,07,19,01,15,14.20
2017,07,19,01,16,14.20
2017,07,19,01,17,14.20
2017,07,19,01,18,14.20
2017,07,19,01,19,14.20
2017,07,19,01,20,14.20
2017,07,19,01,21,14.20
2017,07,19,01,22,14.20
2017,07,19,01,23,14.30
2017,07,19,01,24,14.30
2017,07,19,01,25,14.30
2017,07,19,01,26,14.30
2017,07,19,01,27,14.30
2017,07,19,01,28,14.30
2017,07,19,01,29,14.30
2017,07,19,01,30,14.30
2017,07,19,01,31,14.20
2017,07,19,01,32,14.30
2017,07,19,01,33,14.30
2017,07,19,01,34,14.30
2017,07,19,01,35,14.30
2017,07,19,01,36,14.30
2017,07,19,01,37,14.30
2017,07,19,01,38,14.30
2017,07,19,01,39,14.30
2017,07,19,01,40,14.30
2017,07,19,01,41,14.30
2017,07,19,01,42,14.30
2017,07,19,01,43,14.30
2017,07,19,01,44,14.30
2017,07,19,01,45,14.30
2017,07,19,01,46,14.30
2017,07,19,01,47,14.30
2017,07,19,01,48,14.30
2017,07,19,01,49,14.30
2017,07,19,01,50,14.20
2017,07,19,01,51,14.20
2017,07,19,01,52,14.20
2017,07,19,01,53,14.20
2017,07,19,01,54,14.10
2017,07,19,01,55,14.10
2017,07,19,01,56,14.10
2017,07,19,01,57,14.10
2017,07,19,01,58,14.00
2017,07,19,01,59,14.00
2017,07,19,02,00,13.90
2017,07,19,02,01,13.90
2017,07,19,02,02,13.80
2017,07,19,02,03,13.80
2017,07,19,02,04,13.80
2017,07,19,02,05,13.80
2017,07,19,02,06,13.70
2017,07,19,02,07,13.70
2017,07,19,02,08,13.70
2017,07,19,02,09,13.70
2017,07,19,02,10,13.70
2017,07,19,02,11,13.70
2017,07,19,02,12,13.70
2017,07,19,02,13,13.70
2017,07,19,02,14,13.70
2017,07,19,02,15,13.70
2017,07,19,02,16,13.70
2017,07,19,02,17,13.70
2017,07,19,02,18,13.70
2017,07,19,02,19,13.70
2017,07,19,02,20,13.70
2017,07,19,02,21,13.80
2017,07,19,02,22,13.80
2017,07,19,02,23,13.80
2017,07,19,02,24,13.80
2017,07,19,02,25,13.80
2017,07,19,02,26,13.80
2017,07,19,02,27,13.80
2017,07,19,02,28,13.80
2017,07,19,02,29,13.80
2017,07,19,02,30,13.70
2017,07,19,02,31,13.70
2017,07,19,02,32,13.70
2017,07,19,02,33,13.70
2017,07,19,02,34,13.70
2017,07,19,02,35,13.70
2017,07,19,02,36,13.70
2017,07,19,02,37,13.70
2017,07,19,02,38,13.70
2017,07,19,02,39,13.70
2017,07,19,02,40,13.70
2017,07,19,02,41,13.70
2017,07,19,02,42,13.70
2017,07,19,02,43,13.70
2017,07,19,02,44,13.70
2017,07,19,02,45,13.70
2017,07,19,02,46,13.70
2017,07,19,02,47,13.70
2017,07,19,02,48,13.70
2017,07,19,02,49,13.80
2017,07,19,02,50,13.80
2017,07,19,02,51,13.80
2017,07,19,02,52,13.80
2017,07,19,02,53,13.80
2017,07,19,02,54,13.80
2017,07,19,02,55,13.80
2017,07,19,02,56,13.80
2017,07,19,02,57,13.80
2017,07,19,02,58,13.80
2017,07,19,02,59,13.80
2017,07,19,03,00,13.80
2017,07,19,03,01,13.80
2017,07,19,03,02,13.80
2017,07,19,03,03,13.80
2017,07,19,03,04,13.80
2017,07,19,03,05,13.70
2017,07,19,03,06,13.70
2017,07,19,03,07,13.70
2017,07,19,03,08,13.70
2017,07,19,03,09,13.70
2017,07,19,03,10,13.70
2017,07,19,03,11,13.60
2017,07,19,03,12,13.60
2017,07,19,03,13,13.60
2017,07,19,03,14,13.60
2017,07,19,03,15,13.60
2017,07,19,03,16,13.60
2017,07,19,03,17,13.60
2017,07,19,03,18,13.60
2017,07,19,03,19,13.50
2017,07,19,03,20,13.50
2017,07,19,03,21,13.50
2017,07,19,03,22,13.40
2017,07,19,03,23,13.40
2017,07,19,03,24,13.40
2017,07,19,03,25,13.40
2017,07,19,03,26,13.40
2017,07,19,03,27,13.40
2017,07,19,03,28,13.40
2017,07,19,03,29,13.30
2017,07,19,03,30,13.30
2017,07,19,03,31,13.30
2017,07,19,03,32,13.30
2017,07,19,03,33,13.30
2017,07,19,03,34,13.40
2017,07,19,03,35,13.40
2017,07,19,03,36,13.40
2017,07,19,03,37,13.40
2017,07,19,03,38,13.40
2017,07,19,03,39,13.40
2017,07,19,03,40,13.40
2017,07,19,03,41,13.40
2017,07,19,03,42,13.40
2017,07,19,03,43,13.40
2017,07,19,03,44,13.50
2017,07,19,03,45,13.60
2017,07,19,03,46,13.60
2017,07,19,03,47,13.60
2017,07,19,03,48,13.70
2017,07,19,03,49,13.70
2017,07,19,03,50,13.80
2017,07,19,03,51,13.80
2017,07,19,03,52,13.80
2017,07,19,03,53,13.80
2017,07,19,03,54,13.80
2017,07,19,03,55,13.80
2017,07,19,03,56,13.80
2017,07,19,03,57,13.80
2017,07,19,03,58,13.80
2017,07,19,03,59,13.80
2017,07,19,04,00,13.80
2017,07,19,04,01,13.80
2017,07,19,04,02,13.80
2017,07,19,04,03,13.80
2017,07,19,04,04,13.70
2017,07,19,04,05,13.70
2017,07,19,04,06,13.70
2017,07,19,04,07,13.70
2017,07,19,04,08,13.70
2017,07,19,04,09,13.70
2017,07,19,04,10,13.70
2017,07,19,04,11,13.70
2017,07,19,04,12,13.70
2017,07,19,04,13,13.70
2017,07,19,04,14,13.70
2017,07,19,04,15,13.70
2017,07,19,04,16,13.60
2017,07,19,04,17,13.60
2017,07,19,04,18,13.60
2017,07,19,04,19,13.60
2017,07,19,04,20,13.50
2017,07,19,04,21,13.50
2017,07,19,04,22,13.40
2017,07,19,04,23,13.40
2017,07,19,04,24,13.30
2017,07,19,04,25,13.30
2017,07,19,04,26,13.30
2017,07,19,04,27,13.20
2017,07,19,04,28,13.20
2017,07,19,04,29,13.10
2017,07,19,04,30,13.10
2017,07,19,04,31,13.00
2017,07,19,04,32,13.00
2017,07,19,04,33,12.90
2017,07,19,04,34,12.90
2017,07,19,04,35,12.80
2017,07,19,04,36,12.80
2017,07,19,04,37,12.70
2017,07,19,04,38,12.70
2017,07,19,04,39,12.60
2017,07,19,04,40,12.60
2017,07,19,04,41,12.50
2017,07,19,04,42,12.50
2017,07,19,04,43,12.50
2017,07,19,04,44,12.40
2017,07,19,04,45,12.40
2017,07,19,04,46,12.30
2017,07,19,04,47,12.30
2017,07,19,04,48,12.30
2017,07,19,04,49,12.30
2017,07,19,04,50,12.30
2017,07,19,04,51,12.30
2017,07,19,04,52,12.30
2017,07,19,04,53,12.30
2017,07,19,04,54,12.30
2017,07,19,04,55,12.20
2017,07,19,04,56,12.20
2017,07,19,04,57,12.20
2017,07,19,04,58,12.20
2017,07,19,04,59,12.20
2017,07,19,05,00,12.20
2017,07,19,05,01,12.10
2017,07,19,05,02,12.10
2017,07,19,05,03,12.00
2017,07,19,05,04,12.00
2017,07,19,05,05,11.90
2017,07,19,05,06,11.90
2017,07,19,05,07,11.90
2017,07,19,05,08,11.90
2017,07,19,05,09,11.90
2017,07,19,05,10,11.90
2017,07,19,05,11,11.90
2017,07,19,05,12,11.90
2017,07,19,05,13,11.80
2017,07,19,05,14,11.80
2017,07,19,05,15,11.80
2017,07,19,05,16,11.80
2017,07,19,05,17,11.80
2017,07,19,05,18,11.80
2017,07,19,05,19,11.80
2017,07,19,05,20,11.80
2017,07,19,05,21,11.80
2017,07,19,05,22,11.80
2017,07,19,05,23,11.80
2017,07,19,05,24,11.80
2017,07,19,05,25,11.80
2017,07,19,05,26,11.80
2017,07,19,05,27,11.80
2017,07,19,05,28,11.80
2017,07,19,05,29,11.80
2017,07,19,05,30,11.80
2017,07,19,05,31,11.70
2017,07,19,05,32,11.70
2017,07,19,05,33,11.70
2017,07,19,05,34,11.70
2017,07,19,05,35,11.60
2017,07,19,05,36,11.60
2017,07,19,05,37,11.60
2017,07,19,05,38,11.60
2017,07,19,05,39,11.60
2017,07,19,05,40,11.60
2017,07,19,05,41,11.60
2017,07,19,05,42,11.50
2017,07,19,05,43,11.50
2017,07,19,05,44,11.50
2017,07,19,05,45,11.50
2017,07,19,05,46,11.60
2017,07,19,05,47,11.60
2017,07,19,05,48,11.50
2017,07,19,05,49,11.50
2017,07,19,05,50,11.50
2017,07,19,05,51,11.50
2017,07,19,05,52,11.50
2017,07,19,05,53,11.50
2017,07,19,05,54,11.50
2017,07,19,05,55,11.50
2017,07,19,05,56,11.50
2017,07,19,05,57,11.50
2017,07,19,05,58,11.50
2017,07,19,05,59,11.50
2017,07,19,06,00,11.60
2017,07,19,06,01,11.60
2017,07,19,06,02,11.60
2017,07,19,06,03,11.60
2017,07,19,06,04,11.60
2017,07,19,06,05,11.60
2017,07,19,06,06,11.60
2017,07,19,06,07,11.60
2017,07,19,06,08,11.60
2017,07,19,06,09,11.60
2017,07,19,06,10,11.70
2017,07,19,06,11,11.70
2017,07,19,06,12,11.70
2017,07,19,06,13,11.80
2017,07,19,06,14,11.80
2017,07,19,06,15,11.80
2017,07,19,06,16,11.80
2017,07,19,06,17,11.80
2017,07,19,06,18,11.80
2017,07,19,06,19,11.80
2017,07,19,06,20,11.80
2017,07,19,06,21,11.80
2017,07,19,06,22,11.80
2017,07,19,06,23,11.80
2017,07,19,06,24,11.80
2017,07,19,06,25,11.80
2017,07,19,06,26,11.80
2017,07,19,06,27,11.80
2017,07,19,06,28,11.80
2017,07,19,06,29,11.90
2017,07,19,06,30,11.90
2017,07,19,06,31,12.00
2017,07,19,06,32,12.00
2017,07,19,06,33,12.10
2017,07,19,06,34,12.10
2017,07,19,06,35,12.10
2017,07,19,06,36,12.20
2017,07,19,06,37,12.20
2017,07,19,06,38,12.20
2017,07,19,06,39,12.30
2017,07,19,06,40,12.30
2017,07,19,06,41,12.30
2017,07,19,06,42,12.30
2017,07,19,06,43,12.40
2017,07,19,06,44,12.40
2017,07,19,06,45,12.40
2017,07,19,06,46,12.50
2017,07,19,06,47,12.50
2017,07,19,06,48,12.60
2017,07,19,06,49,12.60
2017,07,19,06,50,12.70
2017,07,19,06,51,12.80
2017,07,19,06,52,12.80
2017,07,19,06,53,12.80
2017,07,19,06,54,12.80
2017,07,19,06,55,12.90
2017,07,19,06,56,12.90
2017,07,19,06,57,13.00
2017,07,19,06,58,13.00
2017,07,19,06,59,13.10
2017,07,19,07,00,13.10
2017,07,19,07,01,13.20
2017,07,19,07,02,13.20
2017,07,19,07,03,13.30
2017,07,19,07,04,13.30
2017,07,19,07,05,13.30
2017,07,19,07,06,13.40
2017,07,19,07,07,13.40
2017,07,19,07,08,13.50
2017,07,19,07,09,13.50
2017,07,19,07,10,13.60
2017,07,19,07,11,13.60
2017,07,19,07,12,13.60
2017,07,19,07,13,13.70
2017,07,19,07,14,13.70
2017,07,19,07,15,13.80
2017,07,19,07,16,13.80
2017,07,19,07,17,13.80
2017,07,19,07,18,13.90
2017,07,19,07,19,13.90
2017,07,19,07,20,13.90
2017,07,19,07,21,14.00
2017,07,19,07,22,14.00
2017,07,19,07,23,14.10
2017,07,19,07,24,14.20
2017,07,19,07,25,14.30
2017,07,19,07,26,14.40
2017,07,19,07,27,14.50
2017,07,19,07,28,14.60
2017,07,19,07,29,14.60
2017,07,19,07,30,14.70
2017,07,19,07,31,14.80
2017,07,19,07,32,14.80
2017,07,19,07,33,14.90
2017,07,19,07,34,14.90
2017,07,19,07,35,14.90
2017,07,19,07,36,15.00
2017,07,19,07,37,15.10
2017,07,19,07,38,15.10
2017,07,19,07,39,15.20
2017,07,19,07,40,15.20
2017,07,19,07,41,15.30
2017,07,19,07,42,15.30
2017,07,19,07,43,15.30
2017,07,19,07,44,15.30
2017,07,19,07,45,15.30
2017,07,19,07,46,15.40
2017,07,19,07,47,15.40
2017,07,19,07,48,15.50
2017,07,19,07,49,15.50
2017,07,19,07,50,15.50
2017,07,19,07,51,15.50
2017,07,19,07,52,15.60
2017,07,19,07,53,15.60
2017,07,19,07,54,15.50
2017,07,19,07,55,15.50
2017,07,19,07,56,15.50
2017,07,19,07,57,15.50
2017,07,19,07,58,15.40
2017,07,19,07,59,15.40
2017,07,19,08,00,15.40
2017,07,19,08,01,15.40
2017,07,19,08,02,15.40
2017,07,19,08,03,15.40
2017,07,19,08,04,15.40
2017,07,19,08,05,15.30
2017,07,19,08,06,15.40
2017,07,19,08,07,15.40
2017,07,19,08,08,15.40
2017,07,19,08,09,15.40
2017,07,19,08,10,15.40
2017,07,19,08,11,15.40
2017,07,19,08,12,15.40
2017,07,19,08,13,15.50
2017,07,19,08,14,15.50
2017,07,19,08,15,15.50
2017,07,19,08,16,15.60
2017,07,19,08,17,15.60
2017,07,19,08,18,15.60
2017,07,19,08,19,15.70
2017,07,19,08,20,15.70
2017,07,19,08,21,15.70
2017,07,19,08,22,15.70
2017,07,19,08,23,15.70
2017,07,19,08,24,15.70
2017,07,19,08,25,15.70
2017,07,19,08,26,15.70
2017,07,19,08,27,15.70
2017,07,19,08,28,15.70
2017,07,19,08,29,15.70
2017,07,19,08,30,15.70
2017,07,19,08,31,15.70
2017,07,19,08,32,15.70
2017,07,19,08,33,15.70
2017,07,19,08,34,15.80
2017,07,19,08,35,15.80
2017,07,19,08,36,15.80
2017,07,19,08,37,15.80
2017,07,19,08,38,15.80
2017,07,19,08,39,15.90
2017,07,19,08,40,15.90
2017,07,19,08,41,15.90
2017,07,19,08,42,15.90
2017,07,19,08,43,16.00
2017,07,19,08,44,16.00
2017,07,19,08,45,16.10
2017,07,19,08,46,16.10
2017,07,19,08,47,16.10
2017,07,19,08,48,16.10
2017,07,19,08,49,16.10
2017,07,19,08,50,16.10
2017,07,19,08,51,16.10
2017,07,19,08,52,16.10
2017,07,19,08,53,16.10
2017,07,19,08,54,16.00
2017,07,19,08,55,16.00
2017,07,19,08,56,16.10
2017,07,19,08,57,16.10
2017,07,19,08,58,16.10
2017,07,19,08,59,16.10
2017,07,19,09,00,16.10
2017,07,19,09,01,16.10
2017,07,19,09,02,16.10
2017,07,19,09,03,16.10
2017,07,19,09,04,16.20
2017,07,19,09,05,16.20
2017,07,19,09,06,16.30
2017,07,19,09,07,16.30
2017,07,19,09,08,16.40
2017,07,19,09,09,16.40
2017,07,19,09,10,16.50
2017,07,19,09,11,16.60
2017,07,19,09,12,16.60
2017,07,19,09,13,16.60
2017,07,19,09,14,16.60
2017,07,19,09,15,16.70
2017,07,19,09,16,16.70
2017,07,19,09,17,16.60
2017,07,19,09,18,16.60
2017,07,19,09,19,16.70
2017,07,19,09,20,16.70
2017,07,19,09,21,16.70
2017,07,19,09,22,16.70
2017,07,19,09,23,16.80
2017,07,19,09,24,16.80
2017,07,19,09,25,16.80
2017,07,19,09,26,16.90
2017,07,19,09,27,16.90
2017,07,19,09,28,16.90
2017,07,19,09,29,17.00
2017,07,19,09,30,17.00
2017,07,19,09,31,17.10
2017,07,19,09,32,17.10
2017,07,19,09,33,17.10
2017,07,19,09,34,17.10
2017,07,19,09,35,17.00
2017,07,19,09,36,17.00
2017,07,19,09,37,17.10
2017,07,19,09,38,17.10
2017,07,19,09,39,17.10
2017,07,19,09,40,17.10
2017,07,19,09,41,17.10
2017,07,19,09,42,17.10
2017,07,19,09,43,17.20
2017,07,19,09,44,17.20
2017,07,19,09,45,17.20
2017,07,19,09,46,17.20
2017,07,19,09,47,17.20
2017,07,19,09,48,17.20
2017,07,19,09,49,17.20
2017,07,19,09,50,17.20
2017,07,19,09,51,17.30
2017,07,19,09,52,17.30
2017,07,19,09,53,17.40
2017,07,19,09,54,17.50
2017,07,19,09,55,17.50
2017,07,19,09,56,17.60
2017,07,19,09,57,17.60
2017,07,19,09,58,17.60
2017,07,19,09,59,17.70
2017,07,19,10,00,17.70
2017,07,19,10,01,17.80
2017,07,19,10,02,17.90
2017,07,19,10,03,18.00
2017,07,19,10,04,18.10
2017,07,19,10,05,18.20
2017,07,19,10,06,18.20
2017,07,19,10,07,18.20
2017,07,19,10,08,18.20
2017,07,19,10,09,18.20
2017,07,19,10,10,18.20
2017,07,19,10,11,18.20
2017,07,19,10,12,18.20
2017,07,19,10,13,18.20
2017,07,19,10,14,18.10
2017,07,19,10,15,18.10
2017,07,19,10,16,18.10
2017,07,19,10,17,18.10
2017,07,19,10,18,18.10
2017,07,19,10,19,18.20
2017,07,19,10,20,18.30
2017,07,19,10,21,18.30
2017,07,19,10,22,18.30
2017,07,19,10,23,18.30
2017,07,19,10,24,18.30
2017,07,19,10,25,18.30
2017,07,19,10,26,18.40
2017,07,19,10,27,18.40
2017,07,19,10,28,18.40
2017,07,19,10,29,18.40
2017,07,19,10,30,18.40
2017,07,19,10,31,18.40
2017,07,19,10,32,18.30
2017,07,19,10,33,18.30
2017,07,19,10,34,18.20
2017,07,19,10,35,18.20
2017,07,19,10,36,18.20
2017,07,19,10,37,18.20
2017,07,19,10,38,18.20
2017,07,19,10,39,18.20
2017,07,19,10,40,18.20
2017,07,19,10,41,18.20
2017,07,19,10,42,18.20
2017,07,19,10,43,18.20
2017,07,19,10,44,18.20
2017,07,19,10,45,18.20
2017,07,19,10,46,18.20
2017,07,19,10,47,18.20
2017,07,19,10,48,18.20
2017,07,19,10,49,18.20
2017,07,19,10,50,18.20
2017,07,19,10,51,18.30
2017,07,19,10,52,18.30
2017,07,19,10,53,18.30
2017,07,19,10,54,18.30
2017,07,19,10,55,18.40
2017,07,19,10,56,18.40
2017,07,19,10,57,18.40
2017,07,19,10,58,18.50
2017,07,19,10,59,18.50
2017,07,19,11,00,18.60
2017,07,19,11,01,18.60
2017,07,19,11,02,18.60
2017,07,19,11,03,18.60
2017,07,19,11,04,18.90
2017,07,19,11,05,19.00
2017,07,19,11,06,19.10
2017,07,19,11,07,19.10
2017,07,19,11,08,19.20
2017,07,19,11,09,19.20
2017,07,19,11,10,19.20
2017,07,19,11,11,19.30
2017,07,19,11,12,19.30
2017,07,19,11,13,19.30
2017,07,19,11,14,19.30
2017,07,19,11,15,19.30
2017,07,19,11,16,19.30
2017,07,19,11,17,19.30
2017,07,19,11,18,19.30
2017,07,19,11,19,19.30
2017,07,19,11,20,19.30
2017,07,19,11,21,19.30
2017,07,19,11,22,19.40
2017,07,19,11,23,19.40
2017,07,19,11,24,19.50
2017,07,19,11,25,19.60
2017,07,19,11,26,19.60
2017,07,19,11,27,19.80
2017,07,19,11,28,19.90
2017,07,19,11,29,20.00
2017,07,19,11,30,20.10
2017,07,19,11,31,20.10
2017,07,19,11,32,20.10
2017,07,19,11,33,20.10
2017,07,19,11,34,20.20
2017,07,19,11,35,20.20
2017,07,19,11,36,20.30
2017,07,19,11,37,20.30
2017,07,19,11,38,20.30
2017,07,19,11,39,20.40
2017,07,19,11,40,20.40
2017,07,19,11,41,20.50
2017,07,19,11,42,20.50
2017,07,19,11,43,20.60
2017,07,19,11,44,20.60
2017,07,19,11,45,20.70
2017,07,19,11,46,20.80
2017,07,19,11,47,20.90
2017,07,19,11,48,21.00
2017,07,19,11,49,21.10
2017,07,19,11,50,21.20
2017,07,19,11,51,21.20
2017,07,19,11,52,21.20
2017,07,19,11,53,21.10
2017,07,19,11,54,21.10
2017,07,19,11,55,21.00
2017,07,19,11,56,21.00
2017,07,19,11,57,21.00
2017,07,19,11,58,21.00
2017,07,19,11,59,21.10
2017,07,19,12,00,21.10
2017,07,19,12,01,21.20
2017,07,19,12,02,21.20
2017,07,19,12,03,21.10
2017,07,19,12,04,21.10
2017,07,19,12,05,21.00
2017,07,19,12,06,20.90
2017,07,19,12,07,20.90
2017,07,19,12,08,21.00
2017,07,19,12,09,21.10
2017,07,19,12,10,21.10
2017,07,19,12,11,21.10
2017,07,19,12,12,21.20
2017,07,19,12,13,21.20
2017,07,19,12,14,21.30
2017,07,19,12,15,21.40
2017,07,19,12,16,21.40
2017,07,19,12,17,21.50
2017,07,19,12,18,21.50
2017,07,19,12,19,21.60
2017,07,19,12,20,21.60
2017,07,19,12,21,21.60
2017,07,19,12,22,21.60
2017,07,19,12,23,21.60
2017,07,19,12,24,21.70
2017,07,19,12,25,21.70
2017,07,19,12,26,21.70
2017,07,19,12,27,21.80
2017,07,19,12,28,21.80
2017,07,19,12,29,21.80
2017,07,19,12,30,21.80
2017,07,19,12,31,21.80
2017,07,19,12,32,21.80
2017,07,19,12,33,21.80
2017,07,19,12,34,21.90
2017,07,19,12,35,21.90
2017,07,19,12,36,22.00
2017,07,19,12,37,22.00
2017,07,19,12,38,22.00
2017,07,19,12,39,22.00
2017,07,19,12,40,22.10
2017,07,19,12,41,22.20
2017,07,19,12,42,22.20
2017,07,19,12,43,22.20
2017,07,19,12,44,22.20
2017,07,19,12,45,22.20
2017,07,19,12,46,22.20
2017,07,19,12,47,22.20
2017,07,19,12,48,22.20
2017,07,19,12,49,22.30
2017,07,19,12,50,22.30
2017,07,19,12,51,22.30
2017,07,19,12,52,22.30
2017,07,19,12,53,22.20
2017,07,19,12,54,22.20
2017,07,19,12,55,22.20
2017,07,19,12,56,22.20
2017,07,19,12,57,22.10
2017,07,19,12,58,22.20
2017,07,19,12,59,22.20
2017,07,19,13,00,22.20
2017,07,19,13,01,22.20
2017,07,19,13,02,22.30
2017,07,19,13,03,22.30
2017,07,19,13,04,22.40
2017,07,19,13,05,22.40
2017,07,19,13,06,22.40
2017,07,19,13,07,22.50
2017,07,19,13,08,22.50
2017,07,19,13,09,22.50
2017,07,19,13,10,22.60
2017,07,19,13,11,22.60
2017,07,19,13,12,22.70
2017,07,19,13,13,22.60
2017,07,19,13,14,22.70
2017,07,19,13,15,22.70
2017,07,19,13,16,22.70
2017,07,19,13,17,22.70
2017,07,19,13,18,22.80
2017,07,19,13,19,22.80
2017,07,19,13,20,22.80
2017,07,19,13,21,22.80
2017,07,19,13,22,22.80
2017,07,19,13,23,22.70
2017,07,19,13,24,22.80
2017,07,19,13,25,22.80
2017,07,19,13,26,22.80
2017,07,19,13,27,22.90
2017,07,19,13,28,22.80
2017,07,19,13,29,22.70
2017,07,19,13,30,22.70
2017,07,19,13,31,22.80
2017,07,19,13,32,22.80
2017,07,19,13,33,22.80
2017,07,19,13,34,22.80
2017,07,19,13,35,22.80
2017,07,19,13,36,22.70
2017,07,19,13,37,22.70
2017,07,19,13,38,22.70
2017,07,19,13,39,22.80
2017,07,19,13,40,22.80
2017,07,19,13,41,22.80
2017,07,19,13,42,22.80
2017,07,19,13,43,22.90
2017,07,19,13,44,22.90
2017,07,19,13,45,22.90
2017,07,19,13,46,22.90
2017,07,19,13,47,23.00
2017,07,19,13,48,23.00
2017,07,19,13,49,23.10
2017,07,19,13,50,23.10
2017,07,19,13,51,23.20
2017,07,19,13,52,23.20
2017,07,19,13,53,23.30
2017,07,19,13,54,23.30
2017,07,19,13,55,23.30
2017,07,19,13,56,23.30
2017,07,19,13,57,23.30
2017,07,19,13,58,23.30
2017,07,19,13,59,23.30
2017,07,19,14,00,23.30
2017,07,19,14,01,23.30
2017,07,19,14,02,23.30
2017,07,19,14,03,23.20
2017,07,19,14,04,23.20
2017,07,19,14,05,23.30
2017,07,19,14,06,23.30
2017,07,19,14,07,23.30
2017,07,19,14,08,23.30
2017,07,19,14,09,23.30
2017,07,19,14,10,23.40
2017,07,19,14,11,23.40
2017,07,19,14,12,23.40
2017,07,19,14,13,23.40
2017,07,19,14,14,23.50
2017,07,19,14,15,23.60
2017,07,19,14,16,23.60
2017,07,19,14,17,23.60
2017,07,19,14,18,23.60
2017,07,19,14,19,23.70
2017,07,19,14,20,23.70
2017,07,19,14,21,23.70
2017,07,19,14,22,23.80
2017,07,19,14,23,23.90
2017,07,19,14,24,23.90
2017,07,19,14,25,23.80
2017,07,19,14,26,23.80
2017,07,19,14,27,23.80
2017,07,19,14,28,23.80
2017,07,19,14,29,23.80
2017,07,19,14,30,23.80
2017,07,19,14,31,23.90
2017,07,19,14,32,24.00
2017,07,19,14,33,24.00
2017,07,19,14,34,24.00
2017,07,19,14,35,23.90
2017,07,19,14,36,23.80
2017,07,19,14,37,23.80
2017,07,19,14,38,23.80
2017,07,19,14,39,23.80
2017,07,19,14,40,23.80
2017,07,19,14,41,23.80
2017,07,19,14,42,23.80
2017,07,19,14,43,23.90
2017,07,19,14,44,23.90
2017,07,19,14,45,23.80
2017,07,19,14,46,23.80
2017,07,19,14,47,23.90
2017,07,19,14,48,23.90
2017,07,19,14,49,23.90
2017,07,19,14,50,23.80
2017,07,19,14,51,23.80
2017,07,19,14,52,23.70
2017,07,19,14,53,23.70
2017,07,19,14,54,23.70
2017,07,19,14,55,23.70
2017,07,19,14,56,23.80
2017,07,19,14,57,23.80
2017,07,19,14,58,23.80
2017,07,19,14,59,23.80
2017,07,19,15,00,23.80
2017,07,19,15,01,23.90
2017,07,19,15,02,24.00
2017,07,19,15,03,24.00
2017,07,19,15,04,24.00
2017,07,19,15,05,23.90
2017,07,19,15,06,23.90
2017,07,19,15,07,23.80
2017,07,19,15,08,23.90
2017,07,19,15,09,23.90
2017,07,19,15,10,23.90
2017,07,19,15,11,23.90
2017,07,19,15,12,24.00
2017,07,19,15,13,24.00
2017,07,19,15,14,24.10
2017,07,19,15,15,24.10
2017,07,19,15,16,24.10
2017,07,19,15,17,24.10
2017,07,19,15,18,24.20
2017,07,19,15,19,24.20
2017,07,19,15,20,24.20
2017,07,19,15,21,24.30
2017,07,19,15,22,24.30
2017,07,19,15,23,24.30
2017,07,19,15,24,24.30
2017,07,19,15,25,24.20
2017,07,19,15,26,24.20
2017,07,19,15,27,24.20
2017,07,19,15,28,24.20
2017,07,19,15,29,24.10
2017,07,19,15,30,24.10
2017,07,19,15,31,24.10
2017,07,19,15,32,24.00
2017,07,19,15,33,24.00
2017,07,19,15,34,24.00
2017,07,19,15,35,24.10
2017,07,19,15,36,24.10
2017,07,19,15,37,24.20
2017,07,19,15,38,24.10
2017,07,19,15,39,24.10
2017,07,19,15,40,24.10
2017,07,19,15,41,24.00
2017,07,19,15,42,23.90
2017,07,19,15,43,23.80
2017,07,19,15,44,23.70
2017,07,19,15,45,23.70
2017,07,19,15,46,23.70
2017,07,19,15,47,23.70
2017,07,19,15,48,23.60
2017,07,19,15,49,23.50
2017,07,19,15,50,23.50
2017,07,19,15,51,23.40
2017,07,19,15,52,23.30
2017,07,19,15,53,23.30
2017,07,19,15,54,23.20
2017,07,19,15,55,23.20
2017,07,19,15,56,23.20
2017,07,19,15,57,23.20
2017,07,19,15,58,23.20
2017,07,19,15,59,23.20
2017,07,19,16,00,23.10
2017,07,19,16,01,23.10
2017,07,19,16,02,23.10
2017,07,19,16,03,23.10
2017,07,19,16,04,23.10
2017,07,19,16,05,23.10
2017,07,19,16,06,23.00
2017,07,19,16,07,23.00
2017,07,19,16,08,23.00
2017,07,19,16,09,22.90
2017,07,19,16,10,22.90
2017,07,19,16,11,22.80
2017,07,19,16,12,22.80
2017,07,19,16,13,22.80
2017,07,19,16,14,22.80
2017,07,19,16,15,22.80
2017,07,19,16,16,22.70
2017,07,19,16,17,22.70
2017,07,19,16,18,22.70
2017,07,19,16,19,22.80
2017,07,19,16,20,22.80
2017,07,19,16,21,22.90
2017,07,19,16,22,22.90
2017,07,19,16,23,23.00
2017,07,19,16,24,23.10
2017,07,19,16,25,23.20
2017,07,19,16,26,23.20
2017,07,19,16,27,23.30
2017,07,19,16,28,23.40
2017,07,19,16,29,23.50
2017,07,19,16,30,23.60
2017,07,19,16,31,23.60
2017,07,19,16,32,23.60
2017,07,19,16,33,23.60
2017,07,19,16,34,23.60
2017,07,19,16,35,23.60
2017,07,19,16,36,23.60
2017,07,19,16,37,23.60
2017,07,19,16,38,23.60
2017,07,19,16,39,23.60
2017,07,19,16,40,23.50
2017,07,19,16,41,23.50
2017,07,19,16,42,23.50
2017,07,19,16,43,23.40
2017,07,19,16,44,23.40
2017,07,19,16,45,23.30
2017,07,19,16,46,23.20
2017,07,19,16,47,23.20
2017,07,19,16,48,23.30
2017,07,19,16,49,23.30
2017,07,19,16,50,23.40
2017,07,19,16,51,23.30
2017,07,19,16,52,23.30
2017,07,19,16,53,23.20
2017,07,19,16,54,23.20
2017,07,19,16,55,23.20
2017,07,19,16,56,23.20
2017,07,19,16,57,23.20
2017,07,19,16,58,23.20
2017,07,19,16,59,23.20
2017,07,19,17,00,23.20
2017,07,19,17,01,23.30
2017,07,19,17,02,23.30
2017,07,19,17,03,23.30
2017,07,19,17,04,23.20
2017,07,19,17,05,23.20
2017,07,19,17,06,23.30
2017,07,19,17,07,23.30
2017,07,19,17,08,23.10
2017,07,19,17,09,23.10
2017,07,19,17,10,23.00
2017,07,19,17,11,23.00
2017,07,19,17,12,22.90
2017,07,19,17,13,22.80
2017,07,19,17,14,22.80
2017,07,19,17,15,22.70
2017,07,19,17,16,22.80
2017,07,19,17,17,22.80
2017,07,19,17,18,22.80
2017,07,19,17,19,22.70